Bad Axe, MI

1:36 AM EDT on May 27, 2017 (GMT -0400)
Huron County Memorial

Weather History for KBAX - November, 2013

Change the Weather History Date:

Tuesday, November 19, 2013

  Actual Average (KP58) Record (KP58)
Temperature  
Mean Temperature 29 °F -  
Max Temperature 35 °F 43 °F 61 °F (1999)
Min Temperature 21 °F 33 °F 16 °F (2014)
Degree Days  
Heating Degree Days 36    
Moisture  
Dew Point 22 °F    
Average Humidity 69    
Maximum Humidity 91    
Minimum Humidity 58    
Precipitation  
Precipitation 0.00 in - - ()
Sea Level Pressure  
Sea Level Pressure 30.30 in    
Wind  
Wind Speed 10 mph (NNW)    
Max Wind Speed 20 mph    
Max Gust Speed 25 mph    
Visibility 10 miles    
Events      
Averages and records for this station are not official NWS values.
T = Trace of Precipitation, MM = Missing Value Source: NWS Daily Summary

Daily Weather History Graph

Daily Weather History Graph

Search for Another Location

Airport or City:

Trip Planner

Search our weather history database for the weather conditions in past years. The results will help you decide how hot, cold, wet, or windy it might be!

Date:

Astronomy

Nov. 19, 2013 Rise Set
Actual Time 7:31 AM EST 5:02 PM EST
Civil Twilight 7:00 AM EST 5:33 PM EST
Nautical Twilight 6:25 AM EST 6:09 PM EST
Astronomical Twilight 5:51 AM EST 6:43 PM EST
Moon 6:52 PM EST (11/19) 9:10 AM EST (11/19)
Length of Visible Light 10h 33m
Length of Day
9h 30m
Waning Gibbous, 96% of the Moon is Illuminated
Nov 19
Waning Gibbous
Nov 25
Last Quarter
Dec 2
New
Dec 9
First Quarter
Dec 17
Full

Hourly Weather History & Observations

Time (EST) Temp. Windchill Dew Point Humidity Pressure Visibility Wind Dir Wind Speed Gust Speed Precip Events Conditions
12:14 AM 34.3 °F 24.2 °F 24.8 °F 68% 30.08 in 10.0 mi NW 16.1 mph 21.9 mph N/A   Overcast
12:34 AM 34.3 °F 24.2 °F 24.1 °F 66% 30.09 in 10.0 mi NW 16.1 mph 19.6 mph N/A   Overcast
12:54 AM 34.3 °F 23.5 °F 23.9 °F 66% 30.09 in 10.0 mi NW 18.4 mph 23.0 mph N/A   Overcast
1:14 AM 34.2 °F 24.0 °F 23.7 °F 66% 30.10 in 10.0 mi NW 16.1 mph 21.9 mph N/A   Overcast
1:34 AM 34.0 °F 23.0 °F 22.5 °F 63% 30.10 in 10.0 mi NW 18.4 mph 24.2 mph N/A   Overcast
1:54 AM 33.8 °F 23.5 °F 21.2 °F 60% 30.11 in 10.0 mi NW 16.1 mph 25.3 mph N/A   Overcast
2:14 AM 33.8 °F 22.5 °F 20.8 °F 59% 30.12 in 10.0 mi NW 19.6 mph 24.2 mph N/A   Overcast
2:34 AM 33.8 °F 23.9 °F 20.8 °F 59% 30.13 in 10.0 mi WNW 15.0 mph 18.4 mph N/A   Overcast
2:54 AM 33.8 °F 25.3 °F 21.2 °F 60% 30.14 in 10.0 mi WNW 11.5 mph 19.6 mph N/A   Overcast
3:14 AM 33.6 °F 24.1 °F 21.7 °F 62% 30.14 in 10.0 mi WNW 13.8 mph - N/A   Overcast
3:34 AM 33.8 °F 25.3 °F 21.6 °F 61% 30.14 in 10.0 mi WNW 11.5 mph 18.4 mph N/A   Overcast
3:55 AM 33.8 °F 27.7 °F 21.9 °F 62% 30.15 in 10.0 mi WNW 6.9 mph - N/A   Overcast
4:14 AM 33.6 °F 25.0 °F 21.9 °F 62% 30.16 in 10.0 mi WNW 11.5 mph - N/A   Overcast
4:34 AM 33.4 °F 25.4 °F 21.9 °F 63% 30.17 in 10.0 mi WNW 10.4 mph 16.1 mph N/A   Overcast
4:55 AM 33.3 °F 25.1 °F 22.1 °F 64% 30.18 in 10.0 mi NW 10.4 mph - N/A   Overcast
5:14 AM 33.1 °F 25.5 °F 22.8 °F 66% 30.19 in 10.0 mi NW 9.2 mph - N/A   Overcast
5:34 AM 32.9 °F 23.7 °F 22.1 °F 65% 30.20 in 10.0 mi NW 12.7 mph 17.3 mph N/A   Overcast
5:55 AM 32.5 °F 23.2 °F 21.2 °F 63% 30.21 in 10.0 mi NW 12.7 mph 16.1 mph N/A   Overcast
6:14 AM 32.4 °F 24.0 °F 21.0 °F 63% 30.21 in 10.0 mi NW 10.4 mph - N/A   Overcast
6:34 AM 32.5 °F 26.2 °F 20.7 °F 62% 30.22 in 10.0 mi WNW 6.9 mph - N/A   Overcast
6:55 AM 32.9 °F 24.7 °F 20.3 °F 60% 30.24 in 10.0 mi WNW 10.4 mph - N/A   Overcast
7:14 AM 32.9 °F 25.9 °F 21.4 °F 63% 30.25 in 10.0 mi WNW 8.1 mph - N/A   Overcast
7:34 AM 32.5 °F 24.8 °F 22.6 °F 67% 30.27 in 10.0 mi NW 9.2 mph - N/A   Overcast
7:54 AM 32.7 °F 25.7 °F 22.6 °F 66% 30.27 in 10.0 mi NNW 8.1 mph - N/A   Overcast
8:14 AM 32.5 °F 26.2 °F 22.3 °F 66% 30.28 in 10.0 mi NNW 6.9 mph - N/A   Overcast
8:34 AM 32.5 °F 24.8 °F 22.3 °F 66% 30.29 in 10.0 mi NNW 9.2 mph - N/A   Overcast
8:54 AM 32.9 °F 24.1 °F 22.5 °F 65% 30.29 in 10.0 mi NNW 11.5 mph - N/A   Overcast
9:14 AM 32.5 °F 23.7 °F 21.6 °F 64% 30.30 in 10.0 mi NNW 11.5 mph - N/A   Overcast
9:34 AM 34.0 °F 26.0 °F 21.6 °F 60% 30.30 in 10.0 mi NNW 10.4 mph - N/A   Mostly Cloudy
9:54 AM 33.1 °F 24.9 °F 21.9 °F 64% 30.31 in 10.0 mi NNW 10.4 mph - N/A   Overcast
10:14 AM 32.9 °F 25.3 °F 22.1 °F 65% 30.32 in 10.0 mi North 9.2 mph - N/A   Overcast
10:34 AM 33.1 °F 26.9 °F 22.1 °F 64% 30.34 in 10.0 mi NNW 6.9 mph - N/A   Overcast
10:54 AM 33.4 °F 27.3 °F 22.1 °F 63% 30.34 in 10.0 mi NNW 6.9 mph - N/A   Overcast
11:14 AM 33.1 °F 28.7 °F 21.9 °F 64% 30.34 in 10.0 mi NNW 4.6 mph - N/A   Overcast
11:34 AM 32.9 °F 26.7 °F 21.7 °F 64% 30.35 in 10.0 mi NNE 6.9 mph - N/A   Overcast
11:54 AM 33.4 °F 27.3 °F 22.1 °F 63% 30.35 in 10.0 mi NNE 6.9 mph - N/A   Overcast
12:14 PM 33.3 °F 26.4 °F 21.4 °F 62% 30.34 in 10.0 mi NNE 8.1 mph - N/A   Mostly Cloudy
12:35 PM 34.3 °F 28.4 °F 22.1 °F 61% 30.34 in 10.0 mi North 6.9 mph - N/A   Scattered Clouds
12:54 PM 33.8 °F 29.6 °F 21.4 °F 60% 30.34 in 10.0 mi North 4.6 mph - N/A   Scattered Clouds
1:14 PM 34.5 °F 29.4 °F 21.6 °F 59% 30.34 in 10.0 mi North 5.8 mph - N/A   Scattered Clouds
1:35 PM 34.2 °F - 20.7 °F 58% 30.35 in 10.0 mi Calm Calm - N/A   Scattered Clouds
1:54 PM 35.4 °F 29.7 °F 21.7 °F 58% 30.35 in 10.0 mi North 6.9 mph - N/A   Mostly Cloudy
2:14 PM 34.5 °F 31.6 °F 21.6 °F 59% 30.35 in 10.0 mi NE 3.5 mph - N/A   Scattered Clouds
2:35 PM 34.5 °F 31.6 °F 22.3 °F 61% 30.35 in 10.0 mi North 3.5 mph - N/A   Scattered Clouds
2:54 PM 34.9 °F - 22.6 °F 61% 30.35 in 10.0 mi Calm Calm - N/A   Clear
3:14 PM 33.4 °F - 21.2 °F 61% 30.35 in 10.0 mi Calm Calm - N/A   Clear
3:35 PM 34.0 °F - 21.4 °F 60% 30.35 in 10.0 mi Calm Calm - N/A   Clear
3:54 PM 34.5 °F - 21.2 °F 58% 30.35 in 10.0 mi Calm Calm - N/A   Clear
4:14 PM 33.8 °F 29.6 °F 22.1 °F 62% 30.35 in 10.0 mi NNE 4.6 mph - N/A   Clear
4:35 PM 32.9 °F - 22.1 °F 65% 30.36 in 10.0 mi Calm Calm - N/A   Clear
4:54 PM 32.9 °F - 21.9 °F 64% 30.37 in 10.0 mi Calm Calm - N/A   Clear
5:14 PM 31.3 °F - 22.1 °F 69% 30.37 in 10.0 mi Calm Calm - N/A   Clear
5:35 PM 30.0 °F - 21.7 °F 71% 30.37 in 10.0 mi Calm Calm - N/A   Clear
5:54 PM 29.1 °F - 21.6 °F 73% 30.38 in 10.0 mi Calm Calm - N/A   Clear
6:14 PM 28.9 °F - 21.4 °F 73% 30.39 in 10.0 mi Calm Calm - N/A   Clear
6:35 PM 27.1 °F - 21.6 °F 80% 30.39 in 10.0 mi Calm Calm - N/A   Clear
6:54 PM 28.0 °F - 22.5 °F 80% 30.39 in 10.0 mi Calm Calm - N/A   Clear
7:14 PM 27.7 °F - 22.1 °F 80% 30.39 in 10.0 mi Calm Calm - N/A   Clear
7:35 PM 25.7 °F - 21.6 °F 84% 30.39 in 10.0 mi Calm Calm - N/A   Clear
7:54 PM 27.9 °F - 23.2 °F 83% 30.40 in 10.0 mi Calm Calm - N/A   Clear
8:14 PM 27.5 °F - 23.2 °F 84% 30.40 in 10.0 mi Calm Calm - N/A   Clear
8:34 PM 26.4 °F - 22.1 °F 84% 30.40 in 10.0 mi Calm Calm - N/A   Clear
8:54 PM 26.2 °F - 22.6 °F 86% 30.40 in 10.0 mi Calm Calm - N/A   Clear
9:14 PM 25.5 °F - 22.8 °F 89% 30.41 in 10.0 mi Calm Calm - N/A   Clear
9:34 PM 24.1 °F - 21.4 °F 89% 30.41 in 10.0 mi Calm Calm - N/A   Clear
9:54 PM 24.4 °F - 22.1 °F 91% 30.40 in 10.0 mi Calm Calm - N/A   Clear
10:14 PM 23.5 °F - 20.8 °F 89% 30.40 in 10.0 mi Calm Calm - N/A   Clear
10:34 PM 23.2 °F - 20.5 °F 89% 30.40 in 10.0 mi Calm Calm - N/A   Clear
10:54 PM 23.0 °F - 20.7 °F 91% 30.41 in 10.0 mi Calm Calm - N/A   Clear
11:14 PM 24.4 °F - 21.7 °F 89% 30.41 in 10.0 mi Calm Calm - N/A   Clear
11:34 PM 23.9 °F - 21.2 °F 89% 30.41 in 10.0 mi Calm Calm - N/A   Clear
11:54 PM 21.9 °F - 19.4 °F 90% 30.41 in 10.0 mi Calm Calm - N/A   Clear